TimeEST,TemperatureF,Dew PointF,Humidity,Sea Level PressureIn,VisibilityMPH,Wind Direction,Wind SpeedMPH,Gust SpeedMPH,PrecipitationIn,Events,Conditions,WindDirDegrees,DateUTC
12:54 AM,18.0,12.0,78,30.19,10.0,Calm,Calm,-,0.00,Snow,Light Snow,0,2013-01-03 05:54:00
1:54 AM,19.0,12.9,77,30.18,7.0,SSE,6.9,-,0.00,Snow,Light Snow,160,2013-01-03 06:54:00
2:09 AM,19.4,14.0,80,30.15,7.0,South,4.6,-,0.00,Snow,Light Snow,170,2013-01-03 07:09:00
2:54 AM,19.9,15.1,81,30.18,5.0,South,4.6,-,0.00,Snow,Light Snow,190,2013-01-03 07:54:00
3:37 AM,19.4,15.8,86,30.14,7.0,South,3.5,-,0.00,Snow,Light Snow,190,2013-01-03 08:37:00
3:50 AM,19.4,15.8,86,30.13,7.0,SSW,4.6,-,0.00,Snow,Light Snow,200,2013-01-03 08:50:00
3:54 AM,19.9,16.0,85,30.17,7.0,SSW,4.6,-,0.00,Snow,Light Snow,200,2013-01-03 08:54:00
4:54 AM,21.0,16.0,81,30.16,9.0,South,4.6,-,0.00,Snow,Light Snow,170,2013-01-03 09:54:00
5:54 AM,21.0,16.0,81,30.16,6.0,South,4.6,-,0.00,Snow,Light Snow,190,2013-01-03 10:54:00
6:54 AM,21.2,17.6,86,30.11,6.0,South,5.8,-,N/A,Snow,Light Snow,170,2013-01-03 11:54:00
7:54 AM,21.0,18.0,88,30.14,4.0,South,4.6,-,0.00,Snow,Light Snow,180,2013-01-03 12:54:00
8:15 AM,21.2,17.6,86,30.10,2.5,South,5.8,-,0.00,Snow,Light Snow,190,2013-01-03 13:15:00
8:37 AM,21.2,17.6,86,30.09,1.5,South,5.8,-,0.00,Snow,Light Snow,190,2013-01-03 13:37:00
8:54 AM,21.9,19.0,89,30.12,1.2,South,8.1,-,0.01,Snow,Light Snow,180,2013-01-03 13:54:00
9:39 AM,21.2,17.6,86,30.09,2.5,South,11.5,-,0.00,Snow,Light Snow,190,2013-01-03 14:39:00
9:54 AM,21.9,18.0,85,30.13,2.5,SSW,10.4,-,0.00,Snow,Light Snow,200,2013-01-03 14:54:00
10:08 AM,21.2,17.6,86,30.08,3.0,SSW,9.2,-,0.00,Snow,Light Snow,200,2013-01-03 15:08:00
10:36 AM,21.2,17.6,86,30.08,2.0,SSW,9.2,-,0.00,Snow,Light Snow,200,2013-01-03 15:36:00
10:49 AM,23.0,17.6,80,30.07,1.5,SSW,10.4,-,0.00,Snow,Light Snow,200,2013-01-03 15:49:00
10:54 AM,23.0,18.0,81,30.11,1.5,SSW,11.5,-,0.01,Snow,Light Snow,200,2013-01-03 15:54:00
11:14 AM,23.0,19.4,86,30.05,2.5,SSW,11.5,-,0.00,Snow,Light Snow,200,2013-01-03 16:14:00
11:20 AM,23.0,17.6,80,30.05,3.0,SSW,12.7,-,0.00,Snow,Light Snow,200,2013-01-03 16:20:00
11:54 AM,24.1,19.0,81,30.06,6.0,SSW,11.5,-,0.00,Snow,Light Snow,210,2013-01-03 16:54:00
12:54 PM,26.1,19.9,78,30.03,3.0,SSW,15.0,-,0.00,Snow,Light Snow,210,2013-01-03 17:54:00
1:19 PM,26.6,21.2,80,29.98,2.5,SSW,18.4,-,0.00,Snow,Light Snow,210,2013-01-03 18:19:00
1:34 PM,26.6,21.2,80,29.97,3.0,SSW,13.8,-,0.00,Snow,Light Snow,200,2013-01-03 18:34:00
1:54 PM,27.0,21.0,78,30.01,7.0,SW,13.8,18.4,0.00,Snow,Light Snow,220,2013-01-03 18:54:00
2:06 PM,28.4,19.4,69,29.96,2.0,WSW,18.4,28.8,0.00,Snow,Light Snow,240,2013-01-03 19:06:00
2:18 PM,28.4,21.2,74,29.96,1.5,SW,17.3,29.9,0.00,Snow,Light Snow,230,2013-01-03 19:18:00
2:22 PM,28.4,21.2,74,29.96,2.0,SW,13.8,29.9,0.00,Snow,Light Snow,230,2013-01-03 19:22:00
2:27 PM,28.4,21.2,74,29.96,3.0,SW,12.7,23.0,0.00,Snow,Light Snow,230,2013-01-03 19:27:00
2:54 PM,28.9,21.9,75,29.99,8.0,WSW,17.3,26.5,0.00,Snow,Light Snow,240,2013-01-03 19:54:00
3:32 PM,30.2,24.8,80,29.96,3.0,SW,19.6,31.1,0.00,Snow,Light Snow,230,2013-01-03 20:32:00
3:37 PM,28.4,24.8,86,29.96,2.0,SW,18.4,31.1,0.00,Snow,Light Snow,220,2013-01-03 20:37:00
3:40 PM,28.4,24.8,86,29.96,1.5,SW,20.7,28.8,0.00,Snow,Light Snow,230,2013-01-03 20:40:00
3:45 PM,28.4,26.6,93,29.96,0.8,SW,25.3,31.1,0.00,Snow,Light Snow,230,2013-01-03 20:45:00
3:54 PM,28.9,25.0,85,29.99,0.8,SW,23.0,32.2,0.00,Snow,Light Snow,220,2013-01-03 20:54:00
4:20 PM,28.4,26.6,93,29.96,0.8,WSW,16.1,28.8,0.01,Snow,Light Snow,240,2013-01-03 21:20:00
4:29 PM,28.4,26.6,93,29.96,1.5,SW,16.1,23.0,0.02,Snow,Light Snow,230,2013-01-03 21:29:00
4:32 PM,28.4,26.6,93,29.96,2.5,SW,11.5,23.0,0.02,Snow,Light Snow,230,2013-01-03 21:32:00
4:42 PM,30.2,26.6,86,29.96,3.0,WSW,19.6,26.5,0.02,Snow,Light Snow,250,2013-01-03 21:42:00
4:54 PM,30.9,27.0,85,29.99,3.0,WSW,20.7,26.5,0.02,Snow,Light Snow,250,2013-01-03 21:54:00
5:54 PM,30.9,25.0,79,30.01,7.0,West,23.0,28.8,0.00,Snow,Light Snow,270,2013-01-03 22:54:00
6:32 PM,30.2,24.8,80,29.99,7.0,West,18.4,24.2,0.00,Snow,Light Snow,270,2013-01-03 23:32:00
6:54 PM,28.9,23.0,78,30.04,8.0,West,15.0,25.3,0.00,Snow,Light Snow,270,2013-01-03 23:54:00
7:54 PM,28.0,21.9,78,30.06,8.0,West,13.8,21.9,0.00,Snow,Light Snow,260,2013-01-04 00:54:00
8:54 PM,27.0,21.0,78,30.05,8.0,West,17.3,25.3,0.00,Snow,Light Snow,260,2013-01-04 01:54:00
9:54 PM,27.0,21.0,78,30.06,7.0,West,15.0,-,0.00,Snow,Light Snow,260,2013-01-04 02:54:00
10:48 PM,26.6,21.2,80,30.02,7.0,WSW,16.1,25.3,0.00,Snow,Light Snow,250,2013-01-04 03:48:00
10:54 PM,27.0,21.0,78,30.05,9.0,WSW,17.3,24.2,0.00,,Overcast,250,2013-01-04 03:54:00
11:54 PM,28.0,21.0,75,30.05,10.0,WSW,16.1,23.0,N/A,,Overcast,250,2013-01-04 04:54:00